| time (UTC) | temp C | wind direction | speed KPH | gust KPH | rain 1hr cm | rain 24hr cm | rain mn cm | humidity % | barometer mb |
| 20260509222328 | 25 | 252 | 0.0 | 0.0 | 0.00 | 0.00 | 0.00 | 100 | 1020.5 |
| 20260509221326 | 24 | 98 | 0.0 | 0.0 | 0.00 | 0.00 | 0.00 | 100 | 1020.5 |
| 20260509220325 | 23 | 72 | 0.0 | 1.6 | 0.00 | 0.00 | 0.00 | 100 | 1020.6 |
| 20260509215324 | 22 | 180 | 0.0 | 0.0 | 0.00 | 0.00 | 0.00 | 100 | 1020.5 |
| 20260509213321 | 20 | 81 | 1.6 | 4.8 | 0.00 | 0.00 | 0.00 | 100 | 1020.3 |
| 20260509212320 | 20 | 270 | 0.0 | 3.2 | 0.00 | 0.00 | 0.00 | 100 | 1020.3 |
| 20260509211318 | 19 | 270 | 0.0 | 0.0 | 0.00 | 0.00 | 0.00 | 100 | 1020.2 |
| 20260509210317 | 17 | 315 | 0.0 | 0.0 | 0.00 | 0.00 | 0.00 | 100 | 1020.0 |
| 20260509204314 | 16 | 315 | 0.0 | 0.0 | 0.00 | 0.00 | 0.00 | 100 | 1019.9 |
| 20260509203313 | 16 | 45 | 0.0 | 0.0 | 0.00 | 0.00 | 0.00 | 100 | 1019.8 |
| 20260509201310 | 15 | 105 | 0.0 | 1.6 | 0.00 | 0.00 | 0.00 | 100 | 1019.5 |
| 20260509200309 | 15 | 105 | 1.6 | 3.2 | 0.00 | 0.00 | 0.00 | 100 | 1019.5 |
| 20260509195307 | 15 | 90 | 0.0 | 3.2 | 0.00 | 0.00 | 0.00 | 100 | 1019.3 |
| 20260509194306 | 15 | 90 | 0.0 | 0.0 | 0.00 | 0.00 | 0.00 | 100 | 1019.1 |
| 20260509193304 | 15 | 67 | 0.0 | 0.0 | 0.00 | 0.00 | 0.00 | 100 | 1019.0 |
| 20260509191302 | 15 | 58 | 0.0 | 0.0 | 0.00 | 0.00 | 0.00 | 100 | 1018.5 |
| 20260509190300 | 15 | 45 | 0.0 | 0.0 | 0.00 | 0.00 | 0.00 | 100 | 1018.4 |
| 20260509185259 | 15 | 90 | 0.0 | 0.0 | 0.00 | 0.00 | 0.00 | 100 | 1018.4 |
| 20260509183256 | 15 | 112 | 0.0 | 0.0 | 0.00 | 0.00 | 0.00 | 100 | 1018.2 |
| 20260509181256 | 16 | 45 | 0.0 | 0.0 | 0.00 | 0.00 | 0.00 | 100 | 1017.9 |
| 20260509180252 | 16 | 270 | 0.0 | 0.0 | 0.00 | 0.00 | 0.00 | 100 | 1017.8 |
| 20260509175251 | 16 | 315 | 0.0 | 0.0 | 0.00 | 0.00 | 0.00 | 100 | 1017.8 |
| 20260509174250 | 16 | 315 | 0.0 | 0.0 | 0.00 | 0.00 | 0.00 | 100 | 1017.7 |
| 20260509172247 | 16 | 270 | 0.0 | 0.0 | 0.00 | 0.00 | 0.00 | 100 | 1017.6 |
| 20260509171245 | 16 | 315 | 0.0 | 0.0 | 0.00 | 0.00 | 0.00 | 100 | 1017.5 |
| 20260509170244 | 16 | 45 | 0.0 | 0.0 | 0.00 | 0.00 | 0.00 | 100 | 1017.6 |
| 20260509165243 | 16 | 315 | 0.0 | 0.0 | 0.00 | 0.00 | 0.00 | 100 | 1017.5 |
| 20260509164241 | 16 | 83 | 0.0 | 0.0 | 0.00 | 0.00 | 0.00 | 100 | 1017.4 |
| 20260509163240 | 16 | 315 | 0.0 | 0.0 | 0.00 | 0.00 | 0.00 | 100 | 1017.4 |
| 20260509162239 | 16 | 45 | 0.0 | 0.0 | 0.00 | 0.00 | 0.00 | 100 | 1017.4 |
| 20260509161237 | 16 | 225 | 0.0 | 0.0 | 0.00 | 0.00 | 0.00 | 100 | 1017.3 |
| 20260509160236 | 16 | 67 | 0.0 | 0.0 | 0.00 | 0.00 | 0.00 | 100 | 1017.2 |
| 20260509155236 | 16 | 45 | 0.0 | 1.6 | 0.00 | 0.00 | 0.00 | 100 | 1017.1 |
| 20260509154236 | 16 | 315 | 0.0 | 0.0 | 0.00 | 0.00 | 0.00 | 100 | 1017.1 |
| 20260509153232 | 16 | 225 | 0.0 | 0.0 | 0.00 | 0.00 | 0.00 | 100 | 1017.1 |
| 20260509152230 | 16 | 315 | 0.0 | 0.0 | 0.00 | 0.00 | 0.00 | 100 | 1017.2 |
| 20260509150229 | 17 | 112 | 0.0 | 0.0 | 0.00 | 0.00 | 0.00 | 100 | 1017.2 |
| 20260509145226 | 17 | 45 | 0.0 | 0.0 | 0.00 | 0.00 | 0.00 | 100 | 1017.1 |
| 20260509144225 | 17 | 45 | 0.0 | 0.0 | 0.00 | 0.00 | 0.00 | 100 | 1017.0 |
| 20260509143224 | 17 | 315 | 0.0 | 0.0 | 0.00 | 0.00 | 0.00 | 100 | 1016.8 |
| 20260509142222 | 17 | 315 | 0.0 | 1.6 | 0.00 | 0.00 | 0.00 | 100 | 1016.8 |
| 20260509141221 | 17 | 45 | 0.0 | 0.0 | 0.00 | 0.00 | 0.00 | 100 | 1016.7 |
| 20260509140222 | 17 | 45 | 0.0 | 0.0 | 0.00 | 0.00 | 0.00 | 100 | 1016.5 |
| 20260509135218 | 17 | 112 | 0.0 | 0.0 | 0.00 | 0.00 | 0.00 | 100 | 1016.5 |
| 20260509134217 | 17 | 45 | 0.0 | 0.0 | 0.00 | 0.00 | 0.00 | 100 | 1016.5 |
| 20260509133215 | 17 | 45 | 0.0 | 0.0 | 0.00 | 0.00 | 0.00 | 100 | 1016.3 |
| 20260509132214 | 17 | 45 | 0.0 | 0.0 | 0.00 | 0.00 | 0.00 | 100 | 1016.4 |
| 20260509131213 | 17 | 45 | 0.0 | 0.0 | 0.00 | 0.00 | 0.00 | 100 | 1016.1 |
| 20260509130214 | 17 | 45 | 0.0 | 0.0 | 0.00 | 0.00 | 0.00 | 100 | 1016.2 |
| 20260509125211 | 18 | 45 | 0.0 | 0.0 | 0.00 | 0.00 | 0.00 | 100 | 1016.0 |
| 20260509123208 | 18 | 45 | 0.0 | 0.0 | 0.00 | 0.00 | 0.00 | 100 | 1015.8 |
| 20260509121205 | 18 | 45 | 0.0 | 0.0 | 0.00 | 0.00 | 0.00 | 100 | 1015.9 |
| 20260509115202 | 18 | 45 | 0.0 | 0.0 | 0.00 | 0.00 | 0.00 | 100 | 1015.8 |
| 20260509114202 | 18 | 45 | 0.0 | 0.0 | 0.00 | 0.00 | 0.00 | 100 | 1015.6 |
| 20260509111158 | 19 | 90 | 0.0 | 0.0 | 0.00 | 0.00 | 0.00 | 100 | 1015.2 |
| 20260509105155 | 20 | 45 | 0.0 | 0.0 | 0.00 | 0.00 | 0.00 | 100 | 1015.0 |
| 20260509103152 | 20 | 54 | 0.0 | 3.2 | 0.00 | 0.00 | 0.00 | 100 | 1014.5 |
| 20260509102151 | 20 | 54 | 0.0 | 0.0 | 0.00 | 0.00 | 0.00 | 100 | 1014.4 |
| 20260509101149 | 20 | 87 | 1.6 | 3.2 | 0.00 | 0.00 | 0.00 | 100 | 1014.3 |
| 20260509100148 | 20 | 45 | 0.0 | 0.0 | 0.00 | 0.00 | 0.00 | 100 | 1014.1 |
| 20260509094146 | 21 | 315 | 0.0 | 0.0 | 0.00 | 0.00 | 0.00 | 100 | 1013.7 |
| 20260509093144 | 21 | 112 | 0.0 | 1.6 | 0.00 | 0.00 | 0.00 | 100 | 1013.7 |
| 20260509092143 | 21 | 90 | 3.2 | 6.4 | 0.00 | 0.00 | 0.00 | 100 | 1013.5 |
| 20260509090138 | 22 | 335 | 0.0 | 1.6 | 0.00 | 0.00 | 0.00 | 100 | 1013.2 |
| 20260509082134 | 22 | 162 | 0.0 | 4.8 | 0.00 | 0.00 | 0.00 | 100 | 1012.4 |
| 20260509081133 | 22 | 84 | 6.4 | 12.9 | 0.00 | 0.00 | 0.00 | 100 | 1012.3 |
| 20260509080132 | 22 | 94 | 0.0 | 4.8 | 0.00 | 0.00 | 0.00 | 100 | 1012.2 |
| 20260509075129 | 23 | 63 | 3.2 | 6.4 | 0.00 | 0.00 | 0.00 | 100 | 1012.0 |
| 20260509074127 | 23 | 78 | 1.6 | 6.4 | 0.00 | 0.00 | 0.00 | 100 | 1011.9 |
| 20260509073126 | 23 | 265 | 0.0 | 4.8 | 0.00 | 0.00 | 0.00 | 100 | 1011.6 |
| 20260509072125 | 23 | 282 | 0.0 | 4.8 | 0.00 | 0.00 | 0.00 | 100 | 1011.4 |
| 20260509070122 | 23 | 72 | 4.8 | 9.7 | 0.00 | 0.00 | 0.00 | 100 | 1011.0 |
| 20260509064120 | 23 | 232 | 0.0 | 4.8 | 0.00 | 0.00 | 0.00 | 100 | 1010.9 |
| 20260509063118 | 23 | 143 | 1.6 | 4.8 | 0.00 | 0.00 | 0.00 | 100 | 1011.0 |
| 20260509061115 | 23 | 202 | 6.4 | 12.9 | 0.00 | 0.00 | 0.00 | 100 | 1010.7 |
| 20260509060114 | 23 | 205 | 6.4 | 9.7 | 0.00 | 0.00 | 0.00 | 100 | 1010.8 |
| 20260509054111 | 23 | 90 | 6.4 | 9.7 | 0.00 | 0.00 | 0.00 | 100 | 1010.5 |
| 20260509053110 | 23 | 76 | 3.2 | 11.3 | 0.00 | 0.00 | 0.00 | 100 | 1010.4 |
| 20260509052109 | 24 | 103 | 1.6 | 3.2 | 0.00 | 0.00 | 0.00 | 100 | 1010.4 |
| 20260509051107 | 24 | 67 | 4.8 | 14.5 | 0.00 | 0.00 | 0.00 | 100 | 1010.2 |
| 20260509050106 | 25 | 78 | 3.2 | 6.4 | 0.00 | 0.00 | 0.00 | 100 | 1010.4 |
| 20260509045106 | 25 | 150 | 0.0 | 4.8 | 0.00 | 0.00 | 0.00 | 100 | 1010.8 |
| 20260509044103 | 26 | 85 | 4.8 | 11.3 | 0.00 | 0.00 | 0.00 | 100 | 1010.8 |
| 20260509043102 | 26 | 90 | 3.2 | 8.0 | 0.00 | 0.00 | 0.00 | 100 | 1010.9 |
| 20260509041059 | 26 | 115 | 3.2 | 4.8 | 0.00 | 0.00 | 0.00 | 100 | 1011.0 |
| 20260509040058 | 26 | 101 | 1.6 | 8.0 | 0.00 | 0.00 | 0.00 | 100 | 1011.1 |
| 20260509034055 | 25 | 123 | 4.8 | 8.0 | 0.00 | 0.00 | 0.00 | 100 | 1011.3 |
| 20260509033054 | 25 | 109 | 0.0 | 6.4 | 0.00 | 0.00 | 0.00 | 100 | 1011.2 |
| 20260509030045 | 26 | 92 | 4.8 | 8.0 | 0.00 | 0.00 | 0.00 | 100 | 1011.2 |
| 20260509025043 | 26 | 72 | 4.8 | 6.4 | 0.00 | 0.00 | 0.00 | 100 | 1011.1 |
| 20260509024043 | 26 | 76 | 1.6 | 4.8 | 0.00 | 0.00 | 0.00 | 100 | 1010.9 |
| 20260509023042 | 26 | 90 | 3.2 | 8.0 | 0.00 | 0.00 | 0.00 | 100 | 1010.9 |
| 20260509022039 | 26 | 81 | 3.2 | 8.0 | 0.00 | 0.00 | 0.00 | 100 | 1011.0 |
| 20260509021038 | 26 | 95 | 3.2 | 9.7 | 0.00 | 0.00 | 0.00 | 100 | 1011.0 |
| 20260509015035 | 26 | 165 | 1.6 | 6.4 | 0.00 | 0.00 | 0.00 | 100 | 1010.9 |
| 20260509014034 | 26 | 81 | 6.4 | 8.0 | 0.00 | 0.00 | 0.00 | 100 | 1010.8 |
| 20260509012032 | 26 | 84 | 6.4 | 8.0 | 0.00 | 0.00 | 0.00 | 100 | 1010.8 |
| 20260509011030 | 26 | 90 | 3.2 | 6.4 | 0.00 | 0.00 | 0.00 | 100 | 1010.7 |
| 20260509010029 | 26 | 83 | 0.0 | 9.7 | 0.00 | 0.00 | 0.00 | 100 | 1010.6 |
| 20260509004027 | 26 | 71 | 4.8 | 6.4 | 0.00 | 0.00 | 0.00 | 100 | 1010.0 |
| 20260509003024 | 26 | 87 | 1.6 | 6.4 | 0.00 | 0.00 | 0.00 | 100 | 1009.8 |
| 20260509002023 | 27 | 90 | 1.6 | 8.0 | 0.00 | 0.00 | 0.00 | 100 | 1009.5 |
| 20260509001021 | 27 | 78 | 1.6 | 4.8 | 0.00 | 0.00 | 0.00 | 100 | 1009.6 |
| 20260509000021 | 28 | 45 | 0.0 | 6.4 | 0.00 | 0.00 | 0.00 | 100 | 1009.4 |
| 20260508234017 | 30 | 54 | 3.2 | 3.2 | 0.00 | 0.00 | 0.00 | 100 | 1009.2 |
| 20260508233016 | 30 | 118 | 1.6 | 4.8 | 0.00 | 0.00 | 0.00 | 100 | 1009.1 |
| 20260508232015 | 30 | 225 | 0.0 | 4.8 | 0.00 | 0.00 | 0.00 | 100 | 1008.9 |
| 20260508231013 | 29 | 112 | 0.0 | 3.2 | 0.00 | 0.00 | 0.00 | 100 | 1008.7 |
| 20260508230012 | 28 | 45 | 0.0 | 3.2 | 0.00 | 0.00 | 0.00 | 100 | 1008.6 |
| 20260508225010 | 27 | 45 | 0.0 | 1.6 | 0.00 | 0.00 | 0.00 | 100 | 1008.4 |
| 20260508224009 | 26 | 225 | 0.0 | 1.6 | 0.00 | 0.00 | 0.00 | 100 | 1008.3 |